map of PRG home
PRG - Airport
Location
City:  Prague, Prague, Czech Republic
Near (Alt.):Praha
Name:Václav Havel Airport Prague
Old (Alt.):Prague Ruzyne International Airport
ICAO:LKPR
IATA:PRG

Details
Type:Airport (Aerodrome, Airfield)
Use:Public/Civil, International (customs port of entry)
Latitude:50°06'03"N (50.100833)
Longitude:14°15'36"E (14.260000)
Datum:other
Elevation:1247 ft (380 m)
Variation:3.73°E (WMM2015 magnetic declination)
0.13° annual change
Runways:3
Longest:12189 × 148 ft (3715 × 45 m), paved

Time
Time Zone:UTC+1 (DST+2)
Local Time:

Weather
METAR:LKPR 080000Z 20006KT CAVOK M01/M02 Q1033 NOSIG
TAF:LKPR 072300Z 0800/0906 20006KT 7000 NSC
TEMPO 0800/0801 -FZRADZ BKN030
BECMG 0802/0804 22012KT
BECMG 0808/0810 CAVOK
TEMPO 0804/0906 24017G29KT

Related Locations
Nearby:
Farthest:CHT: 11769 mi / 18940 km
Waitangi [Tuuta], CIT, NZ

Find:

   beyond  
but within

Other Information
Maps:
NOTAMs:
Links:
Sources:

  
flag of Czech Republic
flag of Prague
  

Sectional Chart

Flight Planning
at skyvector.com

Satellite Image

Google Maps Satellite view

 

Copyright © 2004-2016 Karl L. Swartz. All rights reserved.
The Great Circle Mapper name and logo are trademarks of the Great Circle Mapper.
All other trademarks mentioned herein belong to their respective owners.
Please see credits for attibutions and further copyright information.

  Follow gcmap on Facebook Follow gcmap on Twitter Follow gcmap on Google+ GCmap on LinkedIn

hCard Microformat

Geo Microformat